[[{"header":{"parameterUnit":"m.s-1","parameterCategory":1,"la1":30.2991,"la2":30.254,"lo1":-89.0895,"lo2":-89.0444,"dy":0.0017,"dx":0.0017,"nx":28,"ny":28,"refTime":"2025-01-27T03:00:00:Z","depth":0,"parameterNumber":2,"parameterNumberName":"U-component_of_WINDS"},"data":[0,0,0,0,0,0,0,0,0,0,0,0,0,0,0,0,0,0,0,0,0,0,0,0,0,0,0,0,0,0,0,0,0,0,0,0,0,0,0,0,0,0,0,0,0,0,0,0,0,0,0,0,0,0,0,0,0,0,1.0355,1.0355,0,1.042,1.0421,1.0421,1.0434,1.0433,1.0433,1.0432,1.0498,1.0501,1.0503,0,0,0,0,0,0,0,0,0,0,0,0,0,1.0239,1.0241,1.0354,1.0355,1.0356,1.042,1.0421,1.0421,1.0434,1.0433,1.0432,1.0432,1.0498,1.05,1.0503,0,0,0,0,0,0,0,0,0,0,0,0,0,1.0295,1.0242,1.0354,1.037,1.0372,1.0419,1.0421,1.0422,1.0434,1.0433,1.0432,1.0431,1.0497,1.05,1.0503,1.054,0,0,1.0514,1.0515,0,0,0,0,0,0,0,0,1.0292,1.0299,1.0367,1.0369,1.0371,1.0418,1.0404,1.0461,1.0434,1.041,1.0432,1.0431,1.0472,1.0477,1.0491,1.0543,1.0546,1.0514,1.0516,1.0517,1.0518,0,0,0,0,0,0,0,1.0288,1.0297,1.038,1.0368,1.037,1.0373,1.038,1.0415,1.0445,1.0412,1.0413,1.0421,1.0473,1.0488,1.0493,1.0547,1.0514,1.0517,1.0519,1.052,1.063,1.063,0,0,0,0,0,0,1.0281,1.0293,1.0378,1.0382,1.0329,1.0376,1.0384,1.0404,1.0444,1.045,1.0422,1.0421,1.0483,1.0489,1.0495,1.054,1.0517,1.0521,1.0523,1.0629,1.063,1.0631,0,0,0,0,0,0,1.0279,1.0289,1.0376,1.0338,1.0349,1.0379,1.0401,1.0405,1.042,1.0451,1.0457,1.0431,1.0482,1.0491,1.0528,1.0542,1.0522,1.0525,1.0628,1.0629,1.063,1.0629,0,0,0,0,0,0,1.0276,1.0288,1.0303,1.0338,1.0351,1.0408,1.0402,1.0407,1.0426,1.0426,1.0462,1.0467,1.0482,1.0523,1.0532,1.0546,1.0528,1.0627,1.0628,1.063,1.0628,1.063,1.0632,0,0,0,0,0,1.0271,1.03,1.0303,1.0313,1.037,1.0409,1.0416,1.0433,1.0427,1.0442,1.0461,1.0466,1.0539,1.0527,1.0537,1.0552,1.0626,1.0628,1.063,1.0627,1.0629,1.0632,0,0,0,0,0,0,1.0265,1.0305,1.0309,1.035,1.0376,1.0411,1.043,1.0436,1.0463,1.0463,1.0482,1.049,1.0526,1.0543,1.0529,1.0589,1.0582,1.0586,1.0577,1.0579,1.0581,1.0576,1.0531,0,0,0,0,0,1.0269,1.0297,1.033,1.0363,1.0376,1.04,1.0418,1.0428,1.0456,1.0467,1.0489,1.0516,1.0544,1.0563,1.0591,1.063,1.0637,1.0646,1.0648,1.0649,1.0652,1.0672,1.0676,1.0637,1.0637,1.0637,0,0,1.0276,1.0301,1.0318,1.0362,1.0384,1.0412,1.0409,1.044,1.046,1.0471,1.0508,1.0525,1.0556,1.0594,1.0612,1.0609,1.0665,1.0652,1.0653,1.0655,1.0675,1.0678,1.0682,1.0638,1.0638,1.0638,0,0,1.0304,1.0326,1.0355,1.0376,1.0408,1.0424,1.0431,1.0465,1.0477,1.0514,1.0522,1.0547,1.0596,1.0617,1.0634,1.0668,1.0672,1.0676,1.0687,1.0706,1.0709,1.0712,1.0722,1.0726,1.0679,1.0679,1.0679,0,1.0309,1.0352,1.0369,1.0399,1.0417,1.0428,1.0457,1.0477,1.0516,1.0529,1.0525,1.0586,1.0608,1.065,1.0658,1.0672,1.0679,1.0672,1.0707,1.071,1.0713,1.0723,1.0727,1.0679,1.0679,1.0679,1.0679,0,1.0356,1.0385,1.0405,1.0442,1.0463,1.0492,1.0513,1.0532,1.0541,1.0557,1.0593,1.0619,1.0652,1.0663,1.0672,1.0706,1.0703,1.0703,1.0697,1.0717,1.0727,1.0731,1.068,1.068,1.068,1.068,0,0,1.0382,1.0427,1.0434,1.0451,1.0486,1.0509,1.0538,1.057,1.0585,1.0612,1.0636,1.0676,1.0676,1.0695,1.0707,1.0724,1.0747,1.0722,1.0723,1.0724,1.0784,1.0783,1.0788,1.075,1.0751,1.0752,1.0781,0,1.0412,1.0465,1.0481,1.0524,1.0551,1.0561,1.0586,1.061,1.0625,1.065,1.0667,1.0695,1.0693,1.0704,1.0722,1.074,1.0759,1.0739,1.0772,1.0773,1.0763,1.0793,1.0793,1.0819,1.0785,1.0786,1.0787,0,1.0456,1.0482,1.0528,1.0559,1.057,1.0593,1.0622,1.0646,1.0673,1.0683,1.0703,1.0713,1.0742,1.0734,1.0774,1.076,1.0775,1.0786,1.0787,1.079,1.078,1.0796,1.0828,1.0832,1.0793,1.0793,1.0792,0,1.0468,1.0516,1.0549,1.0563,1.06,1.0615,1.0631,1.0657,1.0674,1.07,1.0712,1.0741,1.0756,1.0778,1.0795,1.0788,1.0833,1.0827,1.0841,1.0841,1.085,1.0849,1.0884,1.0861,1.0861,1.0861,1.086,0,1.05,1.0528,1.0555,1.0575,1.0606,1.0623,1.0653,1.0669,1.0692,1.0715,1.0726,1.0747,1.0768,1.0792,1.0805,1.0835,1.0843,1.0851,1.0854,1.0849,1.0848,1.0859,1.0857,1.0862,1.0861,1.0861,1.0861,0,1.0519,1.0539,1.0575,1.0607,1.0615,1.0636,1.0663,1.0683,1.0698,1.0727,1.0735,1.0759,1.0787,1.0806,1.0843,1.0851,1.0884,1.0887,1.0875,1.0876,1.0889,1.0887,1.0931,1.0937,1.0911,1.0911,1.0911,0,1.0538,1.0559,1.0593,1.0609,1.0625,1.0651,1.0669,1.0687,1.0705,1.0736,1.0751,1.0781,1.0805,1.0849,1.087,1.0897,1.09,1.0914,1.0905,1.0899,1.0899,1.0897,1.0899,1.0915,1.0915,1.0915,1.0916,0,1.0569,1.0577,1.0603,1.0631,1.0652,1.0675,1.0699,1.0711,1.0733,1.0752,1.0781,1.08,1.0837,1.0865,1.0894,1.091,1.0916,1.0918,1.0923,1.0918,1.091,1.0913,1.0878,1.0917,1.0917,1.0917,1.0917,1.0917,1.0588,1.0607,1.0633,1.066,1.068,1.0701,1.072,1.0738,1.0762,1.0793,1.0802,1.0832,1.0857,1.0897,1.0913,1.0936,1.0934,1.0941,1.0943,1.0944,1.0943,1.0906,1.0941,1.0941,1.0941,1.0941,1.0941,0,1.0618,1.0635,1.0661,1.0692,1.0714,1.0718,1.0743,1.0761,1.0787,1.081,1.0833,1.0865,1.0892,1.0914,1.0942,1.0956,1.0959,1.0963,1.0961,1.0964,1.0944,1.0936,1.0959,1.0959,1.0959,1.0959,1.0959,1.0959,1.0637,1.0668,1.0679,1.0719,1.0736,1.0766,1.078,1.0799,1.0817,1.0852,1.0875,1.0889,1.0911,1.094,1.0965,1.097,1.098,1.0982,1.0988,1.0968,1.0966,1.0964,1.0957,1.0984,1.0984,1.1007,1.1007,1.1007]},{"header":{"parameterUnit":"m.s-1","parameterCategory":1,"la1":30.2991,"la2":30.254,"lo1":-89.0895,"lo2":-89.0444,"dy":0.0017,"dx":0.0017,"nx":28,"ny":28,"refTime":"2025-01-27T03:00:00:Z","depth":0,"parameterNumber":3,"parameterNumberName":"V-component_of_WINDS"},"data":[0,0,0,0,0,0,0,0,0,0,0,0,0,0,0,0,0,0,0,0,0,0,0,0,0,0,0,0,0,0,0,0,0,0,0,0,0,0,0,0,0,0,0,0,0,0,0,0,0,0,0,0,0,0,0,0,0,0,1.5673,1.5673,0,1.5693,1.5693,1.5693,1.5678,1.5678,1.5677,1.5677,1.5695,1.5696,1.5697,0,0,0,0,0,0,0,0,0,0,0,0,0,1.562,1.5621,1.5673,1.5673,1.5674,1.5693,1.5693,1.5694,1.5679,1.5678,1.5677,1.5676,1.5694,1.5695,1.5697,0,0,0,0,0,0,0,0,0,0,0,0,0,1.5642,1.5621,1.5673,1.5669,1.5668,1.5693,1.5693,1.5694,1.5679,1.5678,1.5677,1.5676,1.5694,1.5695,1.5697,1.5726,0,0,1.5702,1.5703,0,0,0,0,0,0,0,0,1.564,1.5644,1.5669,1.5669,1.5669,1.5682,1.5681,1.5704,1.5679,1.5675,1.5677,1.5675,1.5691,1.5693,1.5699,1.5727,1.5728,1.5702,1.5703,1.5704,1.5704,0,0,0,0,0,0,0,1.5639,1.5643,1.5681,1.5669,1.5669,1.5665,1.5667,1.5685,1.5688,1.5675,1.5674,1.5677,1.5691,1.5697,1.5699,1.5728,1.5702,1.5703,1.5704,1.5705,1.5781,1.5782,0,0,0,0,0,0,1.5638,1.5642,1.568,1.5682,1.5652,1.5667,1.5669,1.5679,1.5688,1.5688,1.5678,1.5676,1.5695,1.5697,1.57,1.5734,1.5704,1.5705,1.5706,1.578,1.5782,1.5783,0,0,0,0,0,0,1.5637,1.5642,1.568,1.5661,1.5666,1.5669,1.568,1.568,1.5686,1.569,1.569,1.5684,1.5694,1.5697,1.572,1.5735,1.5706,1.5707,1.5779,1.5781,1.5782,1.5805,0,0,0,0,0,0,1.5636,1.5642,1.5653,1.5662,1.5667,1.57,1.5681,1.5681,1.5689,1.5687,1.5695,1.5696,1.5694,1.5718,1.5721,1.5737,1.5709,1.5778,1.578,1.5782,1.5802,1.5807,1.581,0,0,0,0,0,1.5634,1.5658,1.5654,1.5659,1.5682,1.5701,1.5704,1.5702,1.5691,1.5702,1.5704,1.5696,1.5733,1.572,1.5724,1.574,1.5777,1.5779,1.5782,1.5801,1.5806,1.581,0,0,0,0,0,0,1.5651,1.5659,1.5655,1.5683,1.5692,1.5699,1.5713,1.5707,1.5719,1.5716,1.5712,1.5714,1.5738,1.5741,1.5727,1.5769,1.5753,1.5756,1.5766,1.5771,1.5775,1.5773,1.571,0,0,0,0,0,1.5658,1.5674,1.568,1.5704,1.5709,1.571,1.5719,1.5716,1.5725,1.5728,1.5732,1.574,1.5753,1.5762,1.5775,1.5803,1.5804,1.5816,1.582,1.5823,1.5826,1.5841,1.5846,1.5791,1.5791,1.579,0,0,1.5672,1.5679,1.5689,1.5708,1.5714,1.573,1.5714,1.5731,1.5743,1.573,1.5752,1.5755,1.5764,1.579,1.5801,1.5793,1.5841,1.5826,1.5828,1.583,1.5844,1.5849,1.5853,1.5792,1.5792,1.5792,0,0,1.5707,1.5714,1.5735,1.5742,1.5752,1.5753,1.5758,1.5766,1.5768,1.579,1.5782,1.5795,1.5818,1.5824,1.5831,1.5868,1.586,1.5872,1.5893,1.5907,1.5911,1.5915,1.5928,1.5933,1.5875,1.5875,1.5875,0,1.5724,1.5748,1.5746,1.5765,1.5773,1.5763,1.5784,1.5791,1.5804,1.581,1.5801,1.583,1.5835,1.5862,1.5871,1.5876,1.5881,1.5871,1.5911,1.5915,1.5918,1.5931,1.5936,1.5876,1.5876,1.5876,1.5876,0,1.5768,1.5785,1.5801,1.5815,1.5825,1.5844,1.5844,1.5854,1.5851,1.5853,1.5875,1.5881,1.5894,1.59,1.5897,1.5927,1.5921,1.5912,1.5896,1.5925,1.5937,1.5942,1.5878,1.5878,1.5878,1.5877,0,0,1.5814,1.5827,1.5833,1.5839,1.585,1.5863,1.5881,1.5895,1.5904,1.5914,1.5929,1.5949,1.594,1.5947,1.5944,1.5957,1.5986,1.5946,1.5946,1.5953,1.6019,1.6026,1.6032,1.5981,1.5982,1.5983,1.6018,0,1.5849,1.5883,1.5882,1.5913,1.5928,1.5919,1.5936,1.5944,1.5945,1.5958,1.596,1.5974,1.5962,1.5966,1.5978,1.598,1.5999,1.5978,1.5995,1.5996,1.5993,1.6038,1.6045,1.6079,1.6023,1.6024,1.6024,0,1.5895,1.5907,1.594,1.5949,1.5955,1.597,1.5982,1.5995,1.6003,1.6004,1.6012,1.6007,1.6025,1.6009,1.6033,1.6019,1.6025,1.6027,1.6029,1.603,1.6012,1.604,1.6089,1.6094,1.6031,1.6031,1.603,0,1.5925,1.5949,1.5972,1.5978,1.5989,1.5999,1.6004,1.6012,1.602,1.6031,1.6036,1.6049,1.6055,1.6065,1.6063,1.6051,1.6088,1.6071,1.6088,1.6088,1.6096,1.6096,1.6147,1.6101,1.6101,1.6101,1.6101,0,1.5965,1.5985,1.5986,1.6,1.6023,1.602,1.6042,1.6046,1.6053,1.6067,1.606,1.6073,1.607,1.6082,1.6081,1.6101,1.6104,1.6105,1.6104,1.6106,1.6105,1.611,1.6107,1.6102,1.6102,1.6102,1.6101,0,1.6002,1.6004,1.6028,1.6036,1.6039,1.6055,1.6061,1.6074,1.6076,1.6093,1.6097,1.6099,1.6114,1.6113,1.6129,1.6129,1.6154,1.615,1.6151,1.615,1.6167,1.6166,1.6223,1.623,1.618,1.618,1.6181,0,1.6027,1.6043,1.6053,1.6062,1.6068,1.6083,1.6092,1.609,1.6099,1.611,1.6122,1.6136,1.6147,1.6171,1.6173,1.6186,1.6183,1.6202,1.6184,1.6185,1.6183,1.6182,1.6183,1.6205,1.6206,1.6206,1.6206,0,1.6071,1.6071,1.6085,1.6099,1.611,1.6121,1.613,1.6138,1.6137,1.6148,1.6164,1.6172,1.619,1.6204,1.6215,1.6219,1.6213,1.6212,1.6217,1.6218,1.6218,1.6218,1.616,1.6211,1.621,1.621,1.621,1.6209,1.6103,1.6117,1.6126,1.6141,1.6149,1.6158,1.6171,1.6174,1.6187,1.6202,1.6199,1.6217,1.6224,1.624,1.6245,1.6258,1.6251,1.6257,1.6259,1.6261,1.6263,1.6216,1.626,1.626,1.626,1.6259,1.6259,0,1.6147,1.6153,1.6167,1.6181,1.6193,1.6187,1.6197,1.6207,1.6223,1.6231,1.6243,1.626,1.6274,1.6277,1.629,1.63,1.6297,1.6303,1.6302,1.6303,1.6268,1.6263,1.6305,1.6305,1.6305,1.6305,1.6305,1.6305,1.6171,1.6194,1.6195,1.6221,1.6226,1.6244,1.625,1.6259,1.6265,1.6286,1.6297,1.63,1.6306,1.6319,1.6331,1.6332,1.6337,1.6344,1.6343,1.631,1.6306,1.6301,1.6296,1.6345,1.6345,1.6377,1.6378,1.6378]}]]